Presure
141 154 137 186 121 123 156 128 181 188 185 193 185 193 184 122 153 147 180 188 203 200 198 199 202 203 200 197 195 160 157 139 201 202 197 218 220 194 192 181 189 181 167 193 204
131 151 133 159 131 131 152 149 194 170 159 209 164 133 137 160 186 203 165 209 219 174 204 204 173 154 200 191 178 185 197 182 153 184 196 199 186 181 179 175 186 184 182 175 140
187 183 175 128 188 136 176 166 147 186 134 184 185 185 158 152 186 172 210 201 209 197 203 202 196 194 209 200 193 157 164 181 171 199 207 203 200 196 185 176 184 192 193 183 203
185 188 170 146 182 194 178 184 175 186 210 123 186 221 200 184 182 178 123 166 169 172 218 200 204 199 208 203 179 185 189 168 178 202 191 201 199 195 188 179 193 190 200 218 187
128 184 184 178 178 178 175 196 198 160 207 190 112 184 184 188 163 165 196 180 187 186 153 181 197 188 211 197 203 198 196 188 176 184 196 145 183 192 187 207 199 200 204 183 178
184 201 183 181 209 218 227 222 223 222 215 232 250 194 193 227 219 184 201 186 182 189 177 190 179 187 200 190 187 199 176 179 194 173 192 185 183 197 192 196 203 191 179 179 177
193 206 207 202 216 224 230 219 222 224 225 230 251 247 233 219 230 190 207 171 198 185 171 185 184 186 188 203 208 202 193 183 181 188 187 187 187 185 194 197 202 213 219 181 183
209 210 210 212 221 222 233 222 224 241 248 262 274 263 286 223 271 251 242 138 206 160 185 185 185 192 194 200 180 196 201 191 190 192 187 193 171 197 209 178 195 204 199 181 189
214 206 220 219 229 238 240 251 252 248 265 266 271 260 284 292 260 261 247 240 208 167 191 169 192 196 198 185 190 182 181 195 191 187 193 197 193 190 194 204 177 208 196 197 202
205 224 209 226 248 241 253 252 276 293 306 306 301 298 285 271 275 249 257 249 243 228 226 187 199 203 204 204 201 188 176 178 195 198 206 198 190 203 210 185 179 187 191 190 188
225 214 227 251 243 250 251 312 325 325 326 315 315 308 292 286 263 257 251 249 229 234 244 235 223 197 147 201 202 198 183 179 182 182 196 195 187 176 201 194 194 198 187 206 200
213 232 247 246 257 256 311 354 355 362 381 353 352 334 313 303 266 255 251 259 248 235 234 249 237 224 215 215 204 186 194 195 194 178 186 197 210 192 184 191 181 215 202 200 216
234 254 253 252 270 347 340 324 564 547 591 619 584 332 336 314 307 269 253 247 263 268 267 270 235 224 205 202 207 207 205 202 202 203 195 198 206 194 122 154 211 191 203 213 217
254 245 248 287 338 325 393 468 537 515 505 414 538 525 472 295 330 289 271 257 248 251 258 257 267 263 258 235 219 212 206 206 212 212 198 194 204 194 227 233 212 234 218 207 208
238 240 279 329 317 404 441 489 477 459 470 440 462 470 442 400 298 297 297 257 241 240 250 252 247 248 253 93 237 224 223 222 214 217 211 207 220 206 238 208 214 232 212 224 225
240 279 327 301 363 431 467 540 434 418 414 405 415 419 426 399 301 313 291 300 247 240 237 244 245 242 238 239 235 227 220 227 232 209 223 235 237 223 216 231 217 215 223 214 209
275 325 297 327 421 420 461 468 407 380 398 396 370 390 384 391 360 285 309 296 254 235 233 242 245 249 246 239 233 222 224 221 223 222 235 231 235 216 109 131 213 211 227 209 230
319 293 303 335 424 422 423 420 395 386 377 369 357 368 356 358 355 312 282 294 284 246 228 236 228 242 239 237 234 236 228 233 235 226 231 231 228 84 126 223 217 219 221 100 230
301 280 326 332 405 423 410 408 389 407 388 359 349 330 361 339 336 329 274 298 290 281 234 226 230 237 240 233 229 229 231 227 229 228 233 231 222 220 222 218 217 200 176 81 89
269 294 329 388 379 415 405 393 385 360 354 360 346 323 344 334 323 328 289 269 294 287 241 229 224 230 233 242 238 233 229 229 231 232 227 222 223 223 221 218 222 229 230 96 86
284 301 313 398 370 405 387 377 359 354 353 349 345 331 323 316 325 311 308 271 272 287 276 231 183 228 225 221 235 238 242 241 239 233 230 231 232 221 221 223 230 230 242 214 241
284 310 317 367 349 395 370 369 348 340 342 337 338 329 318 320 304 315 305 272 275 282 272 244 231 204 228 225 227 229 220 246 245 242 244 242 239 234 226 224 236 231 240 241 244
287 314 350 356 355 383 356 352 347 336 332 333 321 324 324 311 305 308 296 256 275 279 271 253 236 234 231 228 228 224 226 235 245 230 229 227 231 232 231 224 230 232 229 268 244
284 311 362 355 370 375 350 345 334 328 326 320 314 316 313 312 307 297 322 300 273 278 276 272 264 238 251 248 237 233 233 224 226 222 220 222 224 231 233 236 237 233 252 275 234
288 299 365 336 359 375 352 341 320 316 316 314 304 301 304 307 302 298 304 311 297 273 282 277 276 274 268 270 267 259 244 228 228 230 229 231 233 239 232 242 244 267 275 233 250
278 298 354 329 353 366 351 337 315 308 308 305 302 304 298 300 310 312 305 306 306 297 277 254 262 271 273 264 266 259 255 236 233 235 234 241 244 243 295 289 288 288 282 343 286
279 299 362 318 321 332 312 305 301 299 294 296 301 301 299 305 307 313 315 310 302 305 298 279 272 271 276 271 263 261 258 253 265 279 282 285 284 280 283 280 293 314 332 279 261
Wind_Speed
69 61 70 58 59 62 70 68 69 70 70 71 68 70 75 75 74 75 82 81 84 81 85 83 79 78 78 76 78 74 70 80 64 68 72 63 55 57 60 63 62 70 73 63 56
62 72 72 76 68 66 67 66 73 69 68 78 76 74 78 74 75 83 78 87 81 84 89 86 81 81 79 83 79 77 69 78 85 79 74 66 70 67 66 71 66 67 66 65 74
71 67 79 69 73 84 72 82 62 77 72 82 79 79 81 79 78 85 87 88 89 86 88 89 81 81 81 82 84 74 73 78 81 79 72 69 66 64 62 69 67 62 64 63 58
77 77 79 86 78 86 81 80 80 86 86 77 84 87 87 83 83 83 56 89 83 82 86 91 88 87 85 82 80 78 80 79 83 80 71 72 70 68 66 62 64 63 63 63 59
68 79 80 86 84 93 89 88 97 90 94 89 69 87 89 89 92 76 94 90 88 85 82 82 88 80 86 87 85 77 82 82 79 79 79 73 72 74 62 73 68 62 64 59 59
84 93 86 89 94 94 93 91 95 97 97 92 93 82 92 85 96 93 97 97 92 91 86 86 82 84 87 78 83 86 74 76 85 73 85 78 78 75 75 74 70 62 59 60 63
90 93 92 90 98 98 97 93 98 101 102 99 100 91 90 86 92 78 104 91 103 93 90 88 85 85 79 90 89 87 85 82 80 87 87 87 84 74 79 76 76 78 68 63 62
90 88 91 96 101 99 101 97 102 106 105 105 104 100 96 81 102 104 103 79 105 85 97 96 95 91 88 90 71 85 90 83 87 92 90 97 72 84 89 59 74 74 67 62 66
92 91 105 101 111 111 110 107 106 103 106 107 102 95 82 86 100 103 105 98 99 90 97 88 99 97 93 79 85 77 74 90 93 92 95 87 76 77 83 85 75 77 71 69 67
89 106 93 108 111 112 113 109 112 108 100 95 93 90 84 90 92 101 103 101 101 100 106 101 103 102 101 96 93 86 82 83 96 91 94 82 75 87 89 71 64 71 75 69 62
107 97 112 112 113 114 109 113 106 103 101 100 99 91 85 92 94 98 102 100 92 97 99 102 106 95 72 97 102 101 88 82 79 75 86 84 76 63 80 76 81 84 72 82 80
97 117 115 114 115 114 115 103 101 99 89 97 96 94 88 90 93 97 97 99 98 98 96 102 97 104 103 104 102 84 94 96 97 75 80 87 91 76 69 74 74 85 85 83 82
115 114 109 111 115 99 100 98 43 38 35 21 34 81 86 91 87 99 97 96 86 87 90 90 95 102 99 92 98 102 104 102 101 100 85 83 86 81 43 59 79 83 83 81 73
109 107 108 112 94 97 84 70 37 19 22 14 10 32 51 78 84 95 98 95 84 84 81 81 81 86 91 101 104 102 101 103 104 101 89 82 82 80 81 78 87 74 75 77 74
104 104 111 91 93 79 68 56 9 13 12 8 8 27 45 70 76 90 89 96 86 85 79 78 83 83 86 14 103 103 107 104 99 98 97 91 92 83 72 83 79 73 71 65 62
104 107 87 92 85 66 54 32 9 3 4 5 6 23 35 57 76 83 84 84 90 88 81 79 82 82 82 87 91 95 98 97 97 94 96 81 78 74 69 68 75 69 66 60 63
102 86 86 86 68 58 36 9 7 11 5 7 17 12 35 46 65 73 80 81 92 85 80 82 79 78 81 83 86 85 88 90 91 90 78 79 72 65 16 29 68 66 66 64 49
83 83 83 80 57 46 29 5 12 19 16 15 17 15 37 46 55 72 74 81 81 90 77 78 70 77 79 81 82 80 82 82 80 77 75 74 66 23 33 65 66 63 59 14 57
76 79 81 76 51 36 23 11 15 8 17 22 26 32 25 45 53 65 71 75 77 75 88 80 74 76 80 81 79 78 78 80 77 74 71 68 65 66 65 65 65 55 46 16 24
75 72 76 62 50 32 21 15 12 9 12 21 31 38 26 43 51 55 69 64 69 70 89 83 77 78 73 77 80 81 80 80 79 75 71 68 68 69 68 67 66 65 64 32 15
67 71 69 49 46 28 20 14 8 10 14 21 29 38 39 46 48 58 65 66 64 69 77 85 60 81 76 70 73 73 78 81 82 78 75 74 77 66 63 65 68 67 64 50 51
62 71 66 51 46 24 20 13 9 10 15 21 25 32 39 41 51 53 62 63 64 69 78 91 83 70 82 74 71 73 65 74 75 74 72 71 69 68 66 65 70 60 57 51 50
61 66 59 47 40 21 16 10 8 13 16 19 23 26 32 41 47 50 58 60 63 69 75 87 85 86 80 78 76 67 67 66 69 61 60 59 65 68 67 61 59 57 54 64 45
59 63 52 42 30 18 11 6 8 12 14 16 19 23 29 34 41 47 47 59 63 66 70 74 79 79 88 88 84 79 75 63 62 58 57 57 62 64 65 64 62 57 63 52 45
63 58 44 37 27 16 7 6 9 9 10 12 17 21 24 29 37 44 46 49 58 62 67 69 71 71 74 76 77 80 83 71 67 66 64 67 68 70 57 68 71 70 54 44 50
56 55 37 29 18 11 4 9 11 10 9 10 13 16 22 27 32 37 43 46 52 60 63 62 60 64 68 71 73 76 79 73 70 72 72 75 77 69 60 57 53 55 50 30 40
58 52 29 23 12 2 7 10 10 9 9 8 6 9 16 22 27 32 37 41 45 51 61 62 58 59 63 65 66 70 74 74 73 64 61 59 57 52 47 42 37 35 30 45 42
Wind_Direction
280 257 259 276 281 277 275 276 273 269 268 267 261 264 263 263 261 261 260 267 260 262 262 259 258 260 261 261 263 261 263 263 264 266 271 274 277 271 272 274 276 276 277 282 287
286 276 288 259 283 278 277 264 274 267 266 266 264 263 263 262 263 263 264 259 255 254 257 258 262 260 259 261 265 267 262 263 263 267 268 271 269 269 272 271 276 278 281 280 274
285 283 276 283 280 279 272 264 261 272 272 259 268 261 262 261 260 261 261 262 259 265 261 259 261 266 255 258 262 261 267 264 265 267 268 268 270 269 268 269 275 281 282 285 289
286 282 275 274 280 284 275 273 270 278 271 261 265 262 261 260 260 257 266 255 257 256 253 260 260 265 255 258 257 258 263 266 272 268 270 271 272 271 269 272 275 276 284 285 285
286 286 283 271 281 279 274 276 276 261 273 266 264 265 255 261 259 259 256 256 258 259 256 257 263 266 254 262 260 263 261 266 272 276 271 258 275 274 278 275 279 281 281 282 281
286 284 282 283 284 288 287 280 280 276 272 272 274 266 257 262 259 256 251 255 255 257 257 260 256 258 260 267 258 260 267 272 265 272 272 273 274 276 277 278 282 280 278 282 277
284 283 285 283 290 291 288 280 280 277 277 276 274 266 261 259 258 261 251 252 251 254 255 257 256 260 261 261 258 258 260 269 273 267 271 269 271 276 276 279 279 283 282 278 280
289 288 291 289 294 290 289 282 281 279 278 276 271 270 268 259 255 252 251 255 249 256 251 254 256 255 259 260 255 264 260 265 264 264 265 266 261 267 270 278 283 283 280 277 281
290 291 295 294 294 290 287 284 282 281 279 276 272 268 255 247 250 248 248 246 249 256 247 254 254 256 256 252 257 259 261 259 261 262 263 268 273 276 276 274 273 277 277 274 276
291 295 290 295 291 289 288 288 285 280 272 264 261 256 246 245 244 249 246 244 245 247 245 249 250 251 253 256 259 254 250 252 260 265 266 269 269 267 269 274 274 277 276 273 269
296 294 297 293 291 290 292 288 280 276 272 268 265 258 251 241 239 242 246 245 244 244 243 243 244 248 254 251 253 254 249 252 257 260 264 265 267 265 270 276 276 275 276 278 274
295 297 295 294 293 295 293 288 285 281 274 269 261 258 254 248 238 240 242 244 245 245 244 243 243 243 246 247 249 249 254 258 259 254 258 266 266 269 267 272 271 272 273 273 271
297 297 296 295 296 297 293 292 314 305 305 317 263 252 246 244 238 236 240 244 238 242 241 242 240 241 243 244 248 251 253 256 257 259 261 264 265 265 260 262 267 267 270 268 267
297 297 297 300 301 298 304 310 309 296 306 302 259 233 230 239 234 235 231 234 239 239 240 240 240 240 239 244 247 248 250 253 255 259 259 262 265 264 266 265 269 265 264 263 263
298 299 302 305 302 315 313 317 298 318 346 302 263 227 224 227 230 231 233 231 238 240 236 236 237 239 241 253 244 249 252 254 257 259 260 262 265 264 260 266 267 265 262 269 268
300 304 309 304 318 318 320 309 249 18 330 202 254 230 222 221 227 227 232 230 230 235 238 236 236 238 240 241 245 247 250 253 254 255 261 262 261 261 262 258 263 264 267 263 259
304 312 306 314 323 321 327 181 211 258 217 144 212 216 219 219 220 227 227 228 224 232 236 236 236 234 235 238 242 245 248 250 253 255 255 256 257 257 239 259 262 266 271 256 278
312 307 312 321 325 324 324 248 197 217 201 181 192 208 214 214 216 220 225 226 226 226 235 235 237 236 238 240 242 243 246 250 251 253 254 255 258 212 253 262 264 266 268 238 276
311 307 322 323 325 322 314 270 230 191 182 181 185 212 204 210 214 216 222 224 226 223 227 232 233 234 235 238 241 245 247 248 247 250 250 252 254 257 261 259 261 261 258 256 275
306 316 325 325 323 318 307 279 243 206 199 189 184 206 195 208 212 212 218 222 224 221 221 228 233 234 233 235 237 240 243 247 251 250 250 252 254 257 258 260 267 268 267 253 240
315 324 327 325 323 317 301 281 247 228 196 187 191 199 208 206 206 211 213 219 219 219 214 227 234 234 236 238 236 239 241 244 246 249 252 252 253 255 257 261 264 265 267 266 264
318 328 327 323 324 316 302 276 239 213 200 196 193 200 206 206 212 210 213 218 220 219 214 222 232 237 237 240 240 240 244 244 245 247 248 251 254 258 260 261 265 262 268 264 267
324 328 327 324 324 316 309 285 222 201 199 198 199 202 208 212 212 214 216 220 220 220 219 222 231 235 240 241 243 244 246 248 247 250 252 253 257 258 258 259 262 266 260 271 264
325 328 328 326 324 316 302 264 193 193 192 194 200 206 212 217 219 219 214 218 220 222 223 225 227 233 238 239 243 245 248 249 251 251 251 255 256 257 259 264 268 267 272 262 248
327 328 328 330 328 320 281 181 175 181 177 183 202 210 215 219 223 223 222 221 224 224 224 226 229 232 236 238 238 240 244 249 253 254 257 259 261 264 261 266 267 267 258 240 263
324 326 327 327 331 324 233 155 157 161 166 183 204 218 223 225 226 225 226 225 225 227 229 229 230 231 231 235 237 238 238 247 253 255 257 260 263 264 264 265 264 261 261 237 191
323 324 328 324 311 112 140 142 144 147 150 169 198 231 240 241 238 233 230 228 225 226 231 232 232 232 233 235 239 241 244 247 250 254 255 256 258 260 259 257 252 243 227 184 192